| time (UTC) | temp F | wind direction | speed MPH | gust MPH | rain 1hr in | rain 24hr in | rain mn in | humidity % | barometer mb |
| 20260504234128 | 68 | 180 | 1.0 | 1.0 | 0.00 | 0.00 | 0.00 | 38 | 1010.9 |
| 20260504231128 | 69 | 183 | 2.0 | 4.0 | 0.00 | 0.00 | 0.00 | 36 | 1010.8 |
| 20260504230130 | 70 | 270 | 1.0 | 3.0 | 0.00 | 0.00 | 0.00 | 36 | 1010.7 |
| 20260504225227 | 70 | 182 | 1.0 | 3.0 | 0.00 | 0.00 | 0.00 | 36 | 1010.7 |
| 20260504223228 | 71 | 138 | 2.0 | 6.0 | 0.00 | 0.00 | 0.00 | 34 | 1010.7 |
| 20260504222229 | 72 | 205 | 2.0 | 6.0 | 0.00 | 0.00 | 0.00 | 33 | 1010.7 |
| 20260504221228 | 73 | 120 | 3.0 | 6.0 | 0.00 | 0.00 | 0.00 | 32 | 1010.7 |
| 20260504220230 | 74 | 165 | 2.0 | 3.0 | 0.00 | 0.00 | 0.00 | 31 | 1010.7 |
| 20260504215228 | 75 | 189 | 1.0 | 3.0 | 0.00 | 0.00 | 0.00 | 31 | 1010.8 |
| 20260504214229 | 76 | 149 | 3.0 | 4.0 | 0.00 | 0.00 | 0.00 | 30 | 1010.8 |
| 20260504213327 | 76 | 154 | 0.0 | 2.0 | 0.00 | 0.00 | 0.00 | 31 | 1010.9 |
| 20260504212329 | 75 | 233 | 1.0 | 3.0 | 0.00 | 0.00 | 0.00 | 31 | 1010.9 |
| 20260504211427 | 75 | 157 | 3.0 | 6.0 | 0.00 | 0.00 | 0.00 | 31 | 1010.9 |
| 20260504210428 | 74 | 147 | 1.0 | 3.0 | 0.00 | 0.00 | 0.00 | 32 | 1010.8 |
| 20260504205428 | 74 | 194 | 3.0 | 5.0 | 0.00 | 0.00 | 0.00 | 31 | 1010.8 |
| 20260504203528 | 75 | 199 | 0.0 | 6.0 | 0.00 | 0.00 | 0.00 | 29 | 1010.8 |
| 20260504202528 | 75 | 144 | 0.0 | 1.0 | 0.00 | 0.00 | 0.00 | 30 | 1011.0 |
| 20260504200529 | 75 | 303 | 2.0 | 3.0 | 0.00 | 0.00 | 0.00 | 31 | 1011.2 |
| 20260504195628 | 74 | 119 | 3.0 | 8.0 | 0.00 | 0.00 | 0.00 | 31 | 1011.0 |
| 20260504194627 | 74 | 169 | 2.0 | 4.0 | 0.00 | 0.00 | 0.00 | 30 | 1011.1 |
| 20260504193627 | 75 | 127 | 3.0 | 5.0 | 0.00 | 0.00 | 0.00 | 30 | 1011.0 |
| 20260504192629 | 74 | 283 | 0.0 | 3.0 | 0.00 | 0.00 | 0.00 | 31 | 1011.3 |
| 20260504191627 | 73 | 180 | 3.0 | 6.0 | 0.00 | 0.00 | 0.00 | 31 | 1011.4 |
| 20260504190628 | 74 | 257 | 1.0 | 6.0 | 0.00 | 0.00 | 0.00 | 31 | 1011.5 |
| 20260504185628 | 74 | 147 | 4.0 | 7.0 | 0.00 | 0.00 | 0.00 | 30 | 1011.8 |
| 20260504184627 | 73 | 177 | 3.0 | 6.0 | 0.00 | 0.00 | 0.00 | 31 | 1012.0 |
| 20260504183627 | 72 | 294 | 2.0 | 4.0 | 0.00 | 0.00 | 0.00 | 31 | 1012.0 |
| 20260504180727 | 72 | 185 | 1.0 | 4.0 | 0.00 | 0.00 | 0.00 | 32 | 1012.5 |
| 20260504175728 | 72 | 186 | 3.0 | 6.0 | 0.00 | 0.00 | 0.00 | 32 | 1012.8 |
| 20260504174729 | 71 | 155 | 2.0 | 7.0 | 0.00 | 0.00 | 0.00 | 33 | 1012.7 |
| 20260504173728 | 71 | 180 | 1.0 | 2.0 | 0.00 | 0.00 | 0.00 | 33 | 1012.9 |
| 20260504172728 | 71 | 134 | 3.0 | 4.0 | 0.00 | 0.00 | 0.00 | 33 | 1013.0 |
| 20260504171728 | 71 | 261 | 2.0 | 7.0 | 0.00 | 0.00 | 0.00 | 32 | 1013.0 |
| 20260504150827 | 64 | 127 | 2.0 | 4.0 | 0.00 | 0.00 | 0.00 | 43 | 1014.7 |
| 20260504140928 | 59 | 255 | 0.0 | 3.0 | 0.00 | 0.00 | 0.00 | 54 | 1015.0 |
| 20260504100130 | 45 | 180 | 1.0 | 2.0 | 0.00 | 0.00 | 0.00 | 64 | 1015.4 |
| 20260504081426 | 45 | 202 | 0.0 | 0.0 | 0.00 | 0.00 | 0.00 | 59 | 1015.3 |
| 20260504080428 | 45 | 180 | 0.0 | 0.0 | 0.00 | 0.00 | 0.00 | 60 | 1015.3 |
| 20260504045829 | 46 | 180 | 0.0 | 0.0 | 0.00 | 0.00 | 0.00 | 61 | 1015.1 |
| 20260504044927 | 46 | 173 | 2.0 | 3.0 | 0.00 | 0.00 | 0.00 | 62 | 1015.2 |
| 20260504042928 | 46 | 225 | 0.0 | 1.0 | 0.00 | 0.00 | 0.00 | 60 | 1015.0 |
| 20260504041926 | 46 | 149 | 0.0 | 1.0 | 0.00 | 0.00 | 0.00 | 61 | 1014.9 |
| 20260504035935 | 47 | 180 | 0.0 | 1.0 | 0.00 | 0.00 | 0.00 | 57 | 1014.8 |
| 20260504034935 | 48 | 180 | 0.0 | 1.0 | 0.00 | 0.00 | 0.00 | 55 | 1014.7 |
| 20260504033936 | 48 | 157 | 0.0 | 0.0 | 0.00 | 0.00 | 0.00 | 55 | 1014.7 |
| 20260504032936 | 48 | 197 | 2.0 | 4.0 | 0.00 | 0.00 | 0.00 | 56 | 1014.6 |
| 20260504031036 | 50 | 127 | 0.0 | 1.0 | 0.00 | 0.00 | 0.00 | 51 | 1014.6 |
| 20260504030036 | 50 | 225 | 0.0 | 0.0 | 0.00 | 0.00 | 0.00 | 49 | 1014.5 |
| 20260504024035 | 50 | 277 | 0.0 | 2.0 | 0.00 | 0.00 | 0.00 | 50 | 1014.6 |
| 20260504023037 | 50 | 180 | 0.0 | 0.0 | 0.00 | 0.00 | 0.00 | 49 | 1014.6 |
| 20260504022036 | 50 | 225 | 0.0 | 0.0 | 0.00 | 0.00 | 0.00 | 49 | 1014.7 |
| 20260504021033 | 51 | 165 | 0.0 | 2.0 | 0.00 | 0.00 | 0.00 | 47 | 1014.6 |
| 20260504020037 | 51 | 157 | 0.0 | 0.0 | 0.00 | 0.00 | 0.00 | 44 | 1014.6 |
| 20260504015034 | 51 | 157 | 0.0 | 1.0 | 0.00 | 0.00 | 0.00 | 44 | 1014.5 |
| 20260504014035 | 51 | 180 | 0.0 | 1.0 | 0.00 | 0.00 | 0.00 | 45 | 1014.5 |
| 20260504012034 | 52 | 226 | 0.0 | 0.0 | 0.00 | 0.00 | 0.00 | 43 | 1014.3 |
| 20260504011035 | 52 | 157 | 0.0 | 0.0 | 0.00 | 0.00 | 0.00 | 42 | 1014.2 |
| 20260504005037 | 53 | 135 | 0.0 | 1.0 | 0.00 | 0.00 | 0.00 | 42 | 1013.9 |
| 20260504004135 | 53 | 135 | 0.0 | 0.0 | 0.00 | 0.00 | 0.00 | 41 | 1013.9 |
| 20260504003136 | 53 | 180 | 0.0 | 0.0 | 0.00 | 0.00 | 0.00 | 41 | 1013.9 |
| 20260504001234 | 55 | 180 | 0.0 | 0.0 | 0.00 | 0.00 | 0.00 | 38 | 1013.6 |
| 20260504000235 | 56 | 225 | 0.0 | 0.0 | 0.00 | 0.00 | 0.00 | 37 | 1013.5 |
| 20260503235334 | 56 | 151 | 0.0 | 3.0 | 0.00 | 0.00 | 0.00 | 36 | 1013.4 |